Year,Month,Day,Hour,Minute,Value (Times are PST for temperature in C)
2020,10,01,00,00,14.00
2020,10,01,00,01,13.90
2020,10,01,00,02,13.90
2020,10,01,00,03,13.90
2020,10,01,00,04,13.90
2020,10,01,00,05,13.90
2020,10,01,00,06,13.90
2020,10,01,00,07,13.90
2020,10,01,00,08,13.90
2020,10,01,00,09,13.90
2020,10,01,00,10,13.80
2020,10,01,00,11,13.80
2020,10,01,00,12,13.80
2020,10,01,00,13,13.80
2020,10,01,00,14,13.70
2020,10,01,00,15,13.70
2020,10,01,00,16,13.70
2020,10,01,00,17,13.70
2020,10,01,00,18,13.70
2020,10,01,00,19,13.70
2020,10,01,00,20,13.60
2020,10,01,00,21,13.60
2020,10,01,00,22,13.60
2020,10,01,00,23,13.60
2020,10,01,00,24,13.60
2020,10,01,00,25,13.50
2020,10,01,00,26,13.50
2020,10,01,00,27,13.50
2020,10,01,00,28,13.50
2020,10,01,00,29,13.50
2020,10,01,00,30,13.40
2020,10,01,00,31,13.40
2020,10,01,00,32,13.40
2020,10,01,00,33,13.40
2020,10,01,00,34,13.40
2020,10,01,00,35,13.40
2020,10,01,00,36,13.30
2020,10,01,00,37,13.30
2020,10,01,00,38,13.20
2020,10,01,00,39,13.20
2020,10,01,00,40,13.10
2020,10,01,00,41,13.10
2020,10,01,00,42,13.10
2020,10,01,00,43,13.00
2020,10,01,00,44,13.00
2020,10,01,00,45,12.90
2020,10,01,00,46,12.90
2020,10,01,00,47,12.90
2020,10,01,00,48,12.90
2020,10,01,00,49,12.90
2020,10,01,00,50,12.90
2020,10,01,00,51,13.00
2020,10,01,00,52,13.00
2020,10,01,00,53,13.10
2020,10,01,00,54,13.10
2020,10,01,00,55,13.10
2020,10,01,00,56,13.10
2020,10,01,00,57,13.10
2020,10,01,00,58,13.10
2020,10,01,00,59,13.10
2020,10,01,01,00,13.00
2020,10,01,01,01,13.10
2020,10,01,01,02,13.10
2020,10,01,01,03,13.10
2020,10,01,01,04,13.10
2020,10,01,01,05,13.10
2020,10,01,01,06,13.10
2020,10,01,01,07,13.10
2020,10,01,01,08,13.10
2020,10,01,01,09,13.10
2020,10,01,01,10,13.00
2020,10,01,01,11,13.00
2020,10,01,01,12,13.00
2020,10,01,01,13,13.00
2020,10,01,01,14,12.90
2020,10,01,01,15,12.90
2020,10,01,01,16,12.90
2020,10,01,01,17,12.90
2020,10,01,01,18,12.80
2020,10,01,01,19,12.80
2020,10,01,01,20,12.80
2020,10,01,01,21,12.80
2020,10,01,01,22,12.80
2020,10,01,01,23,12.80
2020,10,01,01,24,12.70
2020,10,01,01,25,12.70
2020,10,01,01,26,12.70
2020,10,01,01,27,12.80
2020,10,01,01,28,12.80
2020,10,01,01,29,12.80
2020,10,01,01,30,12.80
2020,10,01,01,31,12.90
2020,10,01,01,32,12.90
2020,10,01,01,33,12.90
2020,10,01,01,34,13.00
2020,10,01,01,35,13.00
2020,10,01,01,36,13.00
2020,10,01,01,37,13.00
2020,10,01,01,38,13.10
2020,10,01,01,39,13.10
2020,10,01,01,40,13.10
2020,10,01,01,41,13.10
2020,10,01,01,42,13.00
2020,10,01,01,43,13.00
2020,10,01,01,44,13.00
2020,10,01,01,45,13.00
2020,10,01,01,46,13.00
2020,10,01,01,47,13.00
2020,10,01,01,48,13.00
2020,10,01,01,49,13.00
2020,10,01,01,50,13.00
2020,10,01,01,51,13.00
2020,10,01,01,52,13.00
2020,10,01,01,53,12.90
2020,10,01,01,54,12.90
2020,10,01,01,55,12.90
2020,10,01,01,56,12.90
2020,10,01,01,57,12.90
2020,10,01,01,58,12.90
2020,10,01,01,59,12.90
2020,10,01,02,00,12.90
2020,10,01,02,01,12.90
2020,10,01,02,02,12.90
2020,10,01,02,03,12.80
2020,10,01,02,04,12.80
2020,10,01,02,05,12.70
2020,10,01,02,06,12.70
2020,10,01,02,07,12.60
2020,10,01,02,08,12.50
2020,10,01,02,09,12.50
2020,10,01,02,10,12.40
2020,10,01,02,11,12.40
2020,10,01,02,12,12.40
2020,10,01,02,13,12.30
2020,10,01,02,14,12.30
2020,10,01,02,15,12.20
2020,10,01,02,16,12.20
2020,10,01,02,17,12.10
2020,10,01,02,18,12.10
2020,10,01,02,19,12.10
2020,10,01,02,20,12.10
2020,10,01,02,21,12.00
2020,10,01,02,22,12.00
2020,10,01,02,23,11.90
2020,10,01,02,24,11.90
2020,10,01,02,25,11.90
2020,10,01,02,26,11.80
2020,10,01,02,27,11.80
2020,10,01,02,28,11.80
2020,10,01,02,29,11.80
2020,10,01,02,30,11.80
2020,10,01,02,31,11.70
2020,10,01,02,32,11.70
2020,10,01,02,33,11.70
2020,10,01,02,34,11.70
2020,10,01,02,35,11.70
2020,10,01,02,36,11.70
2020,10,01,02,37,11.70
2020,10,01,02,38,11.70
2020,10,01,02,39,11.70
2020,10,01,02,40,11.70
2020,10,01,02,41,11.60
2020,10,01,02,42,11.60
2020,10,01,02,43,11.70
2020,10,01,02,44,11.60
2020,10,01,02,45,11.60
2020,10,01,02,46,11.60
2020,10,01,02,47,11.60
2020,10,01,02,48,11.60
2020,10,01,02,49,11.60
2020,10,01,02,50,11.60
2020,10,01,02,51,11.60
2020,10,01,02,52,11.60
2020,10,01,02,53,11.60
2020,10,01,02,54,11.50
2020,10,01,02,55,11.50
2020,10,01,02,56,11.50
2020,10,01,02,57,11.50
2020,10,01,02,58,11.50
2020,10,01,02,59,11.60
2020,10,01,03,00,11.60
2020,10,01,03,01,11.60
2020,10,01,03,02,11.60
2020,10,01,03,03,11.60
2020,10,01,03,04,11.60
2020,10,01,03,05,11.60
2020,10,01,03,06,11.60
2020,10,01,03,07,11.60
2020,10,01,03,08,11.60
2020,10,01,03,09,11.60
2020,10,01,03,10,11.60
2020,10,01,03,11,11.60
2020,10,01,03,12,11.70
2020,10,01,03,13,11.70
2020,10,01,03,14,11.70
2020,10,01,03,15,11.70
2020,10,01,03,16,11.70
2020,10,01,03,17,11.60
2020,10,01,03,18,11.60
2020,10,01,03,19,11.70
2020,10,01,03,20,11.60
2020,10,01,03,21,11.70
2020,10,01,03,22,11.70
2020,10,01,03,23,11.70
2020,10,01,03,24,11.70
2020,10,01,03,25,11.70
2020,10,01,03,26,11.70
2020,10,01,03,27,11.70
2020,10,01,03,28,11.70
2020,10,01,03,29,11.70
2020,10,01,03,30,11.80
2020,10,01,03,31,11.70
2020,10,01,03,32,11.80
2020,10,01,03,33,11.80
2020,10,01,03,34,11.80
2020,10,01,03,35,11.80
2020,10,01,03,36,11.80
2020,10,01,03,37,11.80
2020,10,01,03,38,11.80
2020,10,01,03,39,11.80
2020,10,01,03,40,11.80
2020,10,01,03,41,11.80
2020,10,01,03,42,11.80
2020,10,01,03,43,11.80
2020,10,01,03,44,11.80
2020,10,01,03,45,11.70
2020,10,01,03,46,11.70
2020,10,01,03,47,11.70
2020,10,01,03,48,11.70
2020,10,01,03,49,11.70
2020,10,01,03,50,11.70
2020,10,01,03,51,11.70
2020,10,01,03,52,11.70
2020,10,01,03,53,11.80
2020,10,01,03,54,11.80
2020,10,01,03,55,11.80
2020,10,01,03,56,11.80
2020,10,01,03,57,11.80
2020,10,01,03,58,11.80
2020,10,01,03,59,11.80
2020,10,01,04,00,11.80
2020,10,01,04,01,11.80
2020,10,01,04,02,11.70
2020,10,01,04,03,11.70
2020,10,01,04,04,11.70
2020,10,01,04,05,11.60
2020,10,01,04,06,11.60
2020,10,01,04,07,11.60
2020,10,01,04,08,11.60
2020,10,01,04,09,11.60
2020,10,01,04,10,11.50
2020,10,01,04,11,11.50
2020,10,01,04,12,11.50
2020,10,01,04,13,11.50
2020,10,01,04,14,11.50
2020,10,01,04,15,11.50
2020,10,01,04,16,11.40
2020,10,01,04,17,11.40
2020,10,01,04,18,11.50
2020,10,01,04,19,11.50
2020,10,01,04,20,11.50
2020,10,01,04,21,11.60
2020,10,01,04,22,11.60
2020,10,01,04,23,11.60
2020,10,01,04,24,11.60
2020,10,01,04,25,11.60
2020,10,01,04,26,11.60
2020,10,01,04,27,11.60
2020,10,01,04,28,11.60
2020,10,01,04,29,11.60
2020,10,01,04,30,11.50
2020,10,01,04,31,11.50
2020,10,01,04,32,11.50
2020,10,01,04,33,11.50
2020,10,01,04,34,11.50
2020,10,01,04,35,11.50
2020,10,01,04,36,11.50
2020,10,01,04,37,11.50
2020,10,01,04,38,11.50
2020,10,01,04,39,11.60
2020,10,01,04,40,11.60
2020,10,01,04,41,11.60
2020,10,01,04,42,11.60
2020,10,01,04,43,11.60
2020,10,01,04,44,11.60
2020,10,01,04,45,11.60
2020,10,01,04,46,11.60
2020,10,01,04,47,11.60
2020,10,01,04,48,11.60
2020,10,01,04,49,11.60
2020,10,01,04,50,11.50
2020,10,01,04,51,11.50
2020,10,01,04,52,11.50
2020,10,01,04,53,11.50
2020,10,01,04,54,11.50
2020,10,01,04,55,11.50
2020,10,01,04,56,11.50
2020,10,01,04,57,11.50
2020,10,01,04,58,11.50
2020,10,01,04,59,11.50
2020,10,01,05,00,11.60
2020,10,01,05,01,11.60
2020,10,01,05,02,11.60
2020,10,01,05,03,11.60
2020,10,01,05,04,11.70
2020,10,01,05,05,11.80
2020,10,01,05,06,11.80
2020,10,01,05,07,11.80
2020,10,01,05,08,11.80
2020,10,01,05,09,11.80
2020,10,01,05,10,11.80
2020,10,01,05,11,11.80
2020,10,01,05,12,11.80
2020,10,01,05,13,11.80
2020,10,01,05,14,11.80
2020,10,01,05,15,11.80
2020,10,01,05,16,11.80
2020,10,01,05,17,11.70
2020,10,01,05,18,11.70
2020,10,01,05,19,11.70
2020,10,01,05,20,11.70
2020,10,01,05,21,11.70
2020,10,01,05,22,11.70
2020,10,01,05,23,11.90
2020,10,01,05,24,11.90
2020,10,01,05,25,11.90
2020,10,01,05,26,12.00
2020,10,01,05,27,12.00
2020,10,01,05,28,12.00
2020,10,01,05,29,12.10
2020,10,01,05,30,12.00
2020,10,01,05,31,12.00
2020,10,01,05,32,12.00
2020,10,01,05,33,11.90
2020,10,01,05,34,11.90
2020,10,01,05,35,11.90
2020,10,01,05,36,11.90
2020,10,01,05,37,11.90
2020,10,01,05,38,11.90
2020,10,01,05,39,11.90
2020,10,01,05,40,11.90
2020,10,01,05,41,11.80
2020,10,01,05,42,11.80
2020,10,01,05,43,11.80
2020,10,01,05,44,11.80
2020,10,01,05,45,11.80
2020,10,01,05,46,11.80
2020,10,01,05,47,11.70
2020,10,01,05,48,11.70
2020,10,01,05,49,11.70
2020,10,01,05,50,11.60
2020,10,01,05,51,11.60
2020,10,01,05,52,11.60
2020,10,01,05,53,11.60
2020,10,01,05,54,11.50
2020,10,01,05,55,11.50
2020,10,01,05,56,11.50
2020,10,01,05,57,11.50
2020,10,01,05,58,11.50
2020,10,01,05,59,11.50
2020,10,01,06,00,11.50
2020,10,01,06,01,11.50
2020,10,01,06,02,11.50
2020,10,01,06,03,11.50
2020,10,01,06,04,11.50
2020,10,01,06,05,11.50
2020,10,01,06,06,11.50
2020,10,01,06,07,11.50
2020,10,01,06,08,11.50
2020,10,01,06,09,11.50
2020,10,01,06,10,11.50
2020,10,01,06,11,11.50
2020,10,01,06,12,11.50
2020,10,01,06,13,11.50
2020,10,01,06,14,11.50
2020,10,01,06,15,11.60
2020,10,01,06,16,11.60
2020,10,01,06,17,11.70
2020,10,01,06,18,11.80
2020,10,01,06,19,11.80
2020,10,01,06,20,11.90
2020,10,01,06,21,11.90
2020,10,01,06,22,11.90
2020,10,01,06,23,12.00
2020,10,01,06,24,12.10
2020,10,01,06,25,12.10
2020,10,01,06,26,12.10
2020,10,01,06,27,12.00
2020,10,01,06,28,11.90
2020,10,01,06,29,11.80
2020,10,01,06,30,11.80
2020,10,01,06,31,11.80
2020,10,01,06,32,11.70
2020,10,01,06,33,11.70
2020,10,01,06,34,11.70
2020,10,01,06,35,11.60
2020,10,01,06,36,11.60
2020,10,01,06,37,11.60
2020,10,01,06,38,11.70
2020,10,01,06,39,11.70
2020,10,01,06,40,11.70
2020,10,01,06,41,11.70
2020,10,01,06,42,11.60
2020,10,01,06,43,11.60
2020,10,01,06,44,11.70
2020,10,01,06,45,11.70
2020,10,01,06,46,11.70
2020,10,01,06,47,11.70
2020,10,01,06,48,11.70
2020,10,01,06,49,11.70
2020,10,01,06,50,11.60
2020,10,01,06,51,11.60
2020,10,01,06,52,11.60
2020,10,01,06,53,11.60
2020,10,01,06,54,11.60
2020,10,01,06,55,11.60
2020,10,01,06,56,11.60
2020,10,01,06,57,11.60
2020,10,01,06,58,11.60
2020,10,01,06,59,11.60
2020,10,01,07,00,11.60
2020,10,01,07,01,11.60
2020,10,01,07,02,11.70
2020,10,01,07,03,11.70
2020,10,01,07,04,11.70
2020,10,01,07,05,11.70
2020,10,01,07,06,11.70
2020,10,01,07,07,11.70
2020,10,01,07,08,11.70
2020,10,01,07,09,11.60
2020,10,01,07,10,11.60
2020,10,01,07,11,11.60
2020,10,01,07,12,11.60
2020,10,01,07,13,11.60
2020,10,01,07,14,11.60
2020,10,01,07,15,11.60
2020,10,01,07,16,11.60
2020,10,01,07,17,11.60
2020,10,01,07,18,11.60
2020,10,01,07,19,11.70
2020,10,01,07,20,11.70
2020,10,01,07,21,11.70
2020,10,01,07,22,11.70
2020,10,01,07,23,11.80
2020,10,01,07,24,11.70
2020,10,01,07,25,11.70
2020,10,01,07,26,11.70
2020,10,01,07,27,11.70
2020,10,01,07,28,11.70
2020,10,01,07,29,11.80
2020,10,01,07,30,11.80
2020,10,01,07,31,11.80
2020,10,01,07,32,11.80
2020,10,01,07,33,11.80
2020,10,01,07,34,11.80
2020,10,01,07,35,11.90
2020,10,01,07,36,11.90
2020,10,01,07,37,11.90
2020,10,01,07,38,11.80
2020,10,01,07,39,11.80
2020,10,01,07,40,11.80
2020,10,01,07,41,11.80
2020,10,01,07,42,11.80
2020,10,01,07,43,11.80
2020,10,01,07,44,11.90
2020,10,01,07,45,11.90
2020,10,01,07,46,12.00
2020,10,01,07,47,12.00
2020,10,01,07,48,12.20
2020,10,01,07,49,12.20
2020,10,01,07,50,12.20
2020,10,01,07,51,12.30
2020,10,01,07,52,12.30
2020,10,01,07,53,12.40
2020,10,01,07,54,12.50
2020,10,01,07,55,12.50
2020,10,01,07,56,12.50
2020,10,01,07,57,12.40
2020,10,01,07,58,12.40
2020,10,01,07,59,12.40
2020,10,01,08,00,12.30
2020,10,01,08,01,12.30
2020,10,01,08,02,12.30
2020,10,01,08,03,12.30
2020,10,01,08,04,12.30
2020,10,01,08,05,12.30
2020,10,01,08,06,12.30
2020,10,01,08,07,12.30
2020,10,01,08,08,12.30
2020,10,01,08,09,12.30
2020,10,01,08,10,12.30
2020,10,01,08,11,12.30
2020,10,01,08,12,12.30
2020,10,01,08,13,12.30
2020,10,01,08,14,12.30
2020,10,01,08,15,12.30
2020,10,01,08,16,12.40
2020,10,01,08,17,12.40
2020,10,01,08,18,12.40
2020,10,01,08,19,12.40
2020,10,01,08,20,12.40
2020,10,01,08,21,12.40
2020,10,01,08,22,12.40
2020,10,01,08,23,12.40
2020,10,01,08,24,12.40
2020,10,01,08,25,12.50
2020,10,01,08,26,12.50
2020,10,01,08,27,12.50
2020,10,01,08,28,12.50
2020,10,01,08,29,12.60
2020,10,01,08,30,12.60
2020,10,01,08,31,12.60
2020,10,01,08,32,12.60
2020,10,01,08,33,12.60
2020,10,01,08,34,12.60
2020,10,01,08,35,12.70
2020,10,01,08,36,12.70
2020,10,01,08,37,12.70
2020,10,01,08,38,12.70
2020,10,01,08,39,12.80
2020,10,01,08,40,12.80
2020,10,01,08,41,12.80
2020,10,01,08,42,12.80
2020,10,01,08,43,12.90
2020,10,01,08,44,12.90
2020,10,01,08,45,12.90
2020,10,01,08,46,13.00
2020,10,01,08,47,13.00
2020,10,01,08,48,13.10
2020,10,01,08,49,13.10
2020,10,01,08,50,13.20
2020,10,01,08,51,13.20
2020,10,01,08,52,13.20
2020,10,01,08,53,13.30
2020,10,01,08,54,13.30
2020,10,01,08,55,13.40
2020,10,01,08,56,13.40
2020,10,01,08,57,13.40
2020,10,01,08,58,13.50
2020,10,01,08,59,13.50
2020,10,01,09,00,13.50
2020,10,01,09,01,13.60
2020,10,01,09,02,13.70
2020,10,01,09,03,13.70
2020,10,01,09,04,13.70
2020,10,01,09,05,13.70
2020,10,01,09,06,13.70
2020,10,01,09,07,13.70
2020,10,01,09,08,13.70
2020,10,01,09,09,13.70
2020,10,01,09,10,13.70
2020,10,01,09,11,13.70
2020,10,01,09,12,13.70
2020,10,01,09,13,13.70
2020,10,01,09,14,13.70
2020,10,01,09,15,13.80
2020,10,01,09,16,13.80
2020,10,01,09,17,13.80
2020,10,01,09,18,13.80
2020,10,01,09,19,13.90
2020,10,01,09,20,13.90
2020,10,01,09,21,14.00
2020,10,01,09,22,14.10
2020,10,01,09,23,14.20
2020,10,01,09,24,14.20
2020,10,01,09,25,14.20
2020,10,01,09,26,14.20
2020,10,01,09,27,14.20
2020,10,01,09,28,14.20
2020,10,01,09,29,14.20
2020,10,01,09,30,14.20
2020,10,01,09,31,14.10
2020,10,01,09,32,14.10
2020,10,01,09,33,14.10
2020,10,01,09,34,14.20
2020,10,01,09,35,14.10
2020,10,01,09,36,14.10
2020,10,01,09,37,14.10
2020,10,01,09,38,14.10
2020,10,01,09,39,14.10
2020,10,01,09,40,14.00
2020,10,01,09,41,14.00
2020,10,01,09,42,13.90
2020,10,01,09,43,13.90
2020,10,01,09,44,13.90
2020,10,01,09,45,13.90
2020,10,01,09,46,13.90
2020,10,01,09,47,14.00
2020,10,01,09,48,14.00
2020,10,01,09,49,14.00
2020,10,01,09,50,14.00
2020,10,01,09,51,14.00
2020,10,01,09,52,14.00
2020,10,01,09,53,13.90
2020,10,01,09,54,13.90
2020,10,01,09,55,14.00
2020,10,01,09,56,14.00
2020,10,01,09,57,14.00
2020,10,01,09,58,14.00
2020,10,01,09,59,14.10
2020,10,01,10,00,14.10
2020,10,01,10,01,14.10
2020,10,01,10,02,14.20
2020,10,01,10,03,14.20
2020,10,01,10,04,14.20
2020,10,01,10,05,14.30
2020,10,01,10,06,14.30
2020,10,01,10,07,14.40
2020,10,01,10,08,14.40
2020,10,01,10,09,14.50
2020,10,01,10,10,14.60
2020,10,01,10,11,14.60
2020,10,01,10,12,14.60
2020,10,01,10,13,14.70
2020,10,01,10,14,14.80
2020,10,01,10,15,14.80
2020,10,01,10,16,14.80
2020,10,01,10,17,14.90
2020,10,01,10,18,14.90
2020,10,01,10,19,15.00
2020,10,01,10,20,15.00
2020,10,01,10,21,15.00
2020,10,01,10,22,15.00
2020,10,01,10,23,15.00
2020,10,01,10,24,15.00
2020,10,01,10,25,15.10
2020,10,01,10,26,15.10
2020,10,01,10,27,15.10
2020,10,01,10,28,15.10
2020,10,01,10,29,15.10
2020,10,01,10,30,15.10
2020,10,01,10,31,15.10
2020,10,01,10,32,15.00
2020,10,01,10,33,14.90
2020,10,01,10,34,14.90
2020,10,01,10,35,14.90
2020,10,01,10,36,14.90
2020,10,01,10,37,14.90
2020,10,01,10,38,14.90
2020,10,01,10,39,15.00
2020,10,01,10,40,15.00
2020,10,01,10,41,15.00
2020,10,01,10,42,15.00
2020,10,01,10,43,15.00
2020,10,01,10,44,15.00
2020,10,01,10,45,15.10
2020,10,01,10,46,15.10
2020,10,01,10,47,15.10
2020,10,01,10,48,15.10
2020,10,01,10,49,15.20
2020,10,01,10,50,15.20
2020,10,01,10,51,15.20
2020,10,01,10,52,15.30
2020,10,01,10,53,15.30
2020,10,01,10,54,15.30
2020,10,01,10,55,15.40
2020,10,01,10,56,15.40
2020,10,01,10,57,15.40
2020,10,01,10,58,15.40
2020,10,01,10,59,15.50
2020,10,01,11,00,15.50
2020,10,01,11,01,15.50
2020,10,01,11,02,15.50
2020,10,01,11,03,15.60
2020,10,01,11,04,15.60
2020,10,01,11,05,15.60
2020,10,01,11,06,15.70
2020,10,01,11,07,15.70
2020,10,01,11,08,15.70
2020,10,01,11,09,15.80
2020,10,01,11,10,15.80
2020,10,01,11,11,15.90
2020,10,01,11,12,15.90
2020,10,01,11,13,15.80
2020,10,01,11,14,15.90
2020,10,01,11,15,15.90
2020,10,01,11,16,15.90
2020,10,01,11,17,15.90
2020,10,01,11,18,15.90
2020,10,01,11,19,15.90
2020,10,01,11,20,15.80
2020,10,01,11,21,15.80
2020,10,01,11,22,15.80
2020,10,01,11,23,15.80
2020,10,01,11,24,15.80
2020,10,01,11,25,15.80
2020,10,01,11,26,15.80
2020,10,01,11,27,15.90
2020,10,01,11,28,15.90
2020,10,01,11,29,15.90
2020,10,01,11,30,15.90
2020,10,01,11,31,15.90
2020,10,01,11,32,15.90
2020,10,01,11,33,15.90
2020,10,01,11,34,15.90
2020,10,01,11,35,15.90
2020,10,01,11,36,15.90
2020,10,01,11,37,15.90
2020,10,01,11,38,15.90
